BADR-4

Last updated on Thu Nov 21 2024 00:02:40 GMT+0000 (Coordinated Universal Time)

1 29526U 06051A 24325.30044789 .00000147 00000+0 00000+0 0 9997 2 29526 0.5185 85.6070 0008046 190.3262 278.3052 1.00274703 45518
UTC large
Height (km)
Speed (km/s)
/
Latitude / Longitude
Inclination (degrees)
Orbital Period (minutes)
Azimuth
Elevation
Range (km)
Doppler Factor

Next 0 passes for location: London (51.5072 / 0.1276)

Sorry there are no passes over London.